{"data":{"norad_id":49193,"epoch":"2026-05-25T01:39:00.356832Z","epoch_age_seconds":66429,"freshness":"FRESH","line1":"1 49193U 21083H   26145.06875413  .00000003  00000+0 -25801-4 0  9995","line2":"2 49193  87.9170 340.0499 0001754  92.9864 267.1469 13.18685667226954","mean_motion":13.18685667,"eccentricity":0.0001754,"inclination_deg":87.917,"raan_deg":340.0499,"arg_perigee_deg":92.9864,"mean_anomaly_deg":267.1469,"bstar":-2.5801e-5,"rev_number":22695,"period_min":109.19963991692,"perigee_km":1188.4169945176,"apogee_km":1191.0718073131,"semimajor_km":7567.8814009153,"source":"CELESTRAK","updated_at":"2026-05-25T13:38:22.490210Z"}}